{"data":{"norad_id":54123,"epoch":"2026-09-20T01:08:44.621952Z","epoch_age_seconds":64910,"freshness":"FRESH","line1":"1 54123U 22138L   26263.04773868 -.00000029  00000+0 -10480-3 0  9991","line2":"2 54123  87.9106 286.0690 0002068  79.4484 280.6881 13.19726053189324","mean_motion":13.19726053,"eccentricity":0.0002068,"inclination_deg":87.9106,"raan_deg":286.069,"arg_perigee_deg":79.4484,"mean_anomaly_deg":280.6881,"bstar":-0.0001048,"rev_number":18932,"period_min":109.11355403848,"perigee_km":1184.202313289,"apogee_km":1187.3307437884,"semimajor_km":7563.9035285387,"source":"CELESTRAK","updated_at":"2026-09-20T09:00:44.716973Z"}}